Weather History for KORL - January, 2014

Change the Weather History Date:

Wednesday, January 1, 2014

  Actual Average Record
Temperature  
Mean Temperature 62 °F -  
Max Temperature 64 °F 68 °F 78 °F (1997)
Min Temperature 59 °F 49 °F 33 °F (2001)
Degree Days  
Heating Degree Days 4    
Growing Degree Days 12 (Base 50)    
Moisture  
Dew Point 60 °F    
Average Humidity 93    
Maximum Humidity 100    
Minimum Humidity 80    
Precipitation  
Precipitation 0.06 in - - ()
Sea Level Pressure  
Sea Level Pressure 30.19 in    
Wind  
Wind Speed 8 mph (NNE)    
Max Wind Speed 12 mph    
Max Gust Speed 17 mph    
Visibility 7 miles    
Events Rain    
Averages and records for this station are not official NWS values.
T = Trace of Precipitation, MM = Missing Value Source: NWS Daily Summary

Daily Weather History Graph

Daily Weather History Graph

Search for Another Location

Airport or City:

Trip Planner

Search our weather history database for the weather conditions in past years. The results will help you decide how hot, cold, wet, or windy it might be!

Date:

Astronomy

Jan. 01, 2014 Rise Set
Actual Time 7:18 AM EST 5:40 PM EST
Civil Twilight 6:52 AM EST 6:05 PM EST
Nautical Twilight 6:22 AM EST 6:35 PM EST
Astronomical Twilight 5:54 AM EST 7:04 PM EST
Moon 7:12 AM EST (1/1) 6:17 PM EST (1/1)
Length of Visible Light 11h 13m
Length of Day
10h 22m
New Moon, 0% of the Moon is Illuminated
Jan 1
New Moon
Jan 7
First Quarter
Jan 15
Full
Jan 24
Last Quarter
Jan 30
New

Hourly Weather History & Observations

Time (EST) Temp. Dew Point Humidity Pressure Visibility Wind Dir Wind Speed Gust Speed Precip Events Conditions
12:53 AM 60.1 °F 54.0 °F 80% 30.28 in 10.0 mi North 6.9 mph - N/A   Overcast
1:53 AM 60.1 °F 54.0 °F 80% 30.27 in 10.0 mi NNE 6.9 mph - 0.00 in Rain Light Rain
2:53 AM 60.1 °F 55.0 °F 83% 30.27 in 10.0 mi North 6.9 mph - 0.01 in   Overcast
3:53 AM 59.0 °F 55.0 °F 87% 30.27 in 10.0 mi North 10.4 mph - 0.01 in   Overcast
4:53 AM 59.0 °F 55.0 °F 87% 30.26 in 10.0 mi NNE 9.2 mph - 0.00 in   Overcast
5:53 AM 59.0 °F 55.0 °F 87% 30.26 in 10.0 mi NNE 11.5 mph - 0.00 in   Overcast
6:53 AM 60.1 °F 57.0 °F 90% 30.26 in 10.0 mi NNE 11.5 mph - N/A   Overcast
7:53 AM 60.1 °F 57.0 °F 90% 30.27 in 10.0 mi North 8.1 mph - N/A   Overcast
8:53 AM 62.1 °F 57.9 °F 86% 30.27 in 10.0 mi NNE 9.2 mph - N/A   Overcast
9:53 AM 63.0 °F 60.1 °F 90% 30.28 in 10.0 mi NE 8.1 mph - 0.00 in Rain Light Rain
10:53 AM 64.0 °F 61.0 °F 90% 30.27 in 8.0 mi NE 5.8 mph - 0.00 in Rain Light Rain
11:53 AM 64.9 °F 62.1 °F 90% 30.25 in 7.0 mi NNE 6.9 mph - 0.00 in Rain Light Rain
12:07 PM 64.4 °F 62.6 °F 94% 30.23 in 4.0 mi NNE 6.9 mph - 0.02 in Rain Heavy Rain
12:31 PM 64.4 °F 62.6 °F 94% 30.22 in 8.0 mi NNE 4.6 mph - 0.02 in Rain Light Rain
12:53 PM 64.9 °F 63.0 °F 93% 30.22 in 6.0 mi NNE 8.1 mph - 0.03 in Rain Light Rain
1:26 PM 64.4 °F 62.6 °F 94% 30.18 in 4.0 mi NNE 6.9 mph - 0.01 in Rain Light Rain
1:34 PM 64.4 °F 62.6 °F 94% 30.18 in 5.0 mi NNE 9.2 mph - 0.01 in Rain Light Rain
1:53 PM 64.0 °F 62.1 °F 93% 30.19 in 10.0 mi NNE 11.5 mph - 0.01 in   Overcast
2:53 PM 63.0 °F 61.0 °F 93% 30.17 in 10.0 mi NE 10.4 mph - N/A   Overcast
3:02 PM 62.6 °F 60.8 °F 94% 30.15 in 10.0 mi NE 9.2 mph - N/A   Overcast
3:09 PM 62.6 °F 60.8 °F 94% 30.15 in 10.0 mi NE 5.8 mph - N/A   Overcast
3:53 PM 63.0 °F 61.0 °F 93% 30.16 in 10.0 mi NNE 8.1 mph - N/A   Overcast
4:37 PM 62.6 °F 60.8 °F 94% 30.15 in 1.8 mi NE 9.2 mph - 0.00 in Rain Light Rain
4:53 PM 62.1 °F 60.1 °F 93% 30.17 in 3.0 mi NNE 6.9 mph - 0.00 in   Overcast
5:53 PM 61.0 °F 60.1 °F 97% 30.16 in 10.0 mi NE 6.9 mph - N/A   Overcast
6:53 PM 61.0 °F 60.1 °F 97% 30.17 in 10.0 mi NNE 8.1 mph - N/A   Overcast
7:53 PM 62.1 °F 60.1 °F 93% 30.15 in 10.0 mi NE 10.4 mph 17.3 mph N/A   Overcast
8:53 PM 62.1 °F 61.0 °F 96% 30.14 in 10.0 mi NE 9.2 mph - N/A   Overcast
9:34 PM 62.6 °F 60.8 °F 94% 30.12 in 8.0 mi NNE 8.1 mph - N/A   Overcast
9:53 PM 62.1 °F 61.0 °F 96% 30.13 in 4.0 mi NNE 4.6 mph - N/A   Overcast
10:29 PM 62.6 °F 62.6 °F 100% 30.10 in 2.5 mi NNE 5.8 mph - N/A   Overcast
10:48 PM 62.6 °F 62.6 °F 100% 30.10 in 3.0 mi North 5.8 mph - N/A   Overcast
10:53 PM 62.1 °F 62.1 °F 100% 30.11 in 4.0 mi NNE 6.9 mph - N/A   Overcast
11:25 PM 62.6 °F 62.6 °F 100% 30.09 in 2.5 mi North 5.8 mph - N/A   Overcast
11:43 PM 62.6 °F 62.6 °F 100% 30.08 in 1.5 mi NNE 3.5 mph - N/A   Overcast
11:53 PM 63.0 °F 62.1 °F 97% 30.10 in 1.0 mi North 4.6 mph - N/A   Overcast